User: anonymous   Login
Location: Fort Wayne
(41.1310°N, 85.1290°W)
Time: 09:36:50
(UTC-04:00)
Language:

ISS - Orbit

View from above orbital plane
View from above orbital plane
View from above satellite
View from above satellite

Ground track
Ground track

The orbit data is extracted from the following two-line orbital elements,

1 25544U 98067A   15117.15569757  .00022162  00000-0  31636-3 0  9995
2 25544 051.6477 338.9442 0005210 269.2848 238.3805 15.56178687940097
Epoch (UTC): 27 April 2015 03:44:12
Eccentricity: 0.0005210
inclination: 51.6477°
perigee height: 395 km
apogee height: 402 km
right ascension of ascending node: 338.9442°
argument of perigee: 269.2848°
revolutions per day: 15.56178687
mean anomaly at epoch: 238.3805°
orbit number at epoch: 94009

The dashed part of the orbit path shows where the satellite is in the earth's shadow,  

DLR